RESURS-DK 1

Last updated on Sun Apr 12 2026 00:02:17 GMT+0000 (Coordinated Universal Time)

1 29228U 06021A 26101.46289845 .00001550 00000+0 93867-4 0 9995 2 29228 69.9304 152.2392 0002310 16.4389 343.6852 15.12940054 92482
UTC large
Height (km)
Speed (km/s)
/
Latitude / Longitude
Inclination (degrees)
Orbital Period (minutes)
Azimuth
Elevation
Range (km)
Doppler Factor

Next 0 passes for location: London (51.5072 / 0.1276)

Sorry there are no passes over London.
RESURS-DK 1